Time,TemperatureF,DewpointF,PressureIn,WindDirection,WindDirectionDegrees,WindSpeedMPH,WindSpeedGustMPH,Humidity,HourlyPrecipIn,Conditions,Clouds,dailyrainin,SoftwareType,DateUTC
2013-02-27 00:02:00,38.0,34.0,29.55,SE,136,1.0,8.0,84,0.00,,,0.53,,2013-02-27 05:02:00,
2013-02-27 00:12:00,38.0,34.0,29.55,SE,136,1.0,8.0,84,0.00,,,0.53,,2013-02-27 05:12:00,
2013-02-27 00:22:00,38.0,34.0,29.55,South,174,2.0,6.0,85,0.00,,,0.53,,2013-02-27 05:22:00,
2013-02-27 00:32:00,38.0,34.0,29.55,NNW,328,1.0,7.0,86,0.00,,,0.53,,2013-02-27 05:32:00,
2013-02-27 00:42:00,38.0,34.0,29.55,NNW,328,1.0,7.0,86,0.00,,,0.53,,2013-02-27 05:42:00,
2013-02-27 00:52:00,37.0,34.0,29.54,SSE,167,2.0,6.0,88,0.00,,,0.53,,2013-02-27 05:52:00,
2013-02-27 01:02:00,37.0,34.0,29.54,South,170,2.0,6.0,89,0.01,,,0.54,,2013-02-27 06:02:00,
2013-02-27 01:11:00,37.0,34.0,29.54,South,170,2.0,6.0,89,0.01,,,0.54,,2013-02-27 06:11:00,
2013-02-27 01:22:00,37.0,34.0,29.54,ENE,61,1.0,5.0,90,0.02,,,0.55,,2013-02-27 06:22:00,
2013-02-27 01:33:00,37.0,34.0,29.54,South,171,1.0,6.0,90,0.03,,,0.56,,2013-02-27 06:33:00,
2013-02-27 01:42:00,37.0,34.0,29.54,South,171,1.0,6.0,90,0.03,,,0.56,,2013-02-27 06:42:00,
2013-02-27 01:52:00,37.0,35.0,29.55,South,173,2.0,5.0,91,0.05,,,0.58,,2013-02-27 06:52:00,
2013-02-27 02:01:00,37.0,35.0,29.55,South,173,0.0,4.0,91,0.05,,,0.59,,2013-02-27 07:01:00,
2013-02-27 02:12:00,37.0,35.0,29.55,South,173,0.0,4.0,91,0.05,,,0.59,,2013-02-27 07:12:00,
2013-02-27 02:21:00,36.0,34.0,29.55,SSE,157,0.0,5.0,91,0.04,,,0.59,,2013-02-27 07:21:00,
2013-02-27 02:32:00,36.0,34.0,29.55,SSE,165,0.0,4.0,92,0.04,,,0.60,,2013-02-27 07:32:00,
2013-02-27 02:42:00,36.0,34.0,29.55,SSE,165,0.0,4.0,92,0.04,,,0.60,,2013-02-27 07:42:00,
2013-02-27 02:52:00,36.0,34.0,29.55,NE,42,0.0,5.0,92,0.03,,,0.61,,2013-02-27 07:52:00,
2013-02-27 03:01:00,36.0,34.0,29.55,SE,139,0.0,4.0,92,0.04,,,0.63,,2013-02-27 08:01:00,
2013-02-27 03:11:00,36.0,34.0,29.55,SE,139,0.0,4.0,92,0.04,,,0.63,,2013-02-27 08:11:00,
2013-02-27 03:22:00,36.0,34.0,29.55,SSE,163,1.0,2.0,92,0.06,,,0.65,,2013-02-27 08:22:00,
2013-02-27 03:32:00,37.0,35.0,29.54,South,171,0.0,5.0,93,0.06,,,0.66,,2013-02-27 08:32:00,
2013-02-27 03:42:00,37.0,35.0,29.54,South,171,0.0,5.0,93,0.06,,,0.66,,2013-02-27 08:42:00,
2013-02-27 03:53:00,37.0,35.0,29.55,South,171,0.0,2.0,93,0.07,,,0.68,,2013-02-27 08:53:00,
2013-02-27 04:02:00,37.0,35.0,29.55,South,172,0.0,4.0,93,0.07,,,0.70,,2013-02-27 09:02:00,
2013-02-27 04:12:00,37.0,35.0,29.55,South,172,0.0,4.0,93,0.07,,,0.70,,2013-02-27 09:12:00,
2013-02-27 04:22:00,38.0,36.0,29.54,WNW,291,2.0,7.0,93,0.05,,,0.70,,2013-02-27 09:22:00,
2013-02-27 04:32:00,39.0,37.0,29.54,West,263,5.0,14.0,93,0.05,,,0.71,,2013-02-27 09:32:00,
2013-02-27 04:42:00,39.0,37.0,29.54,West,263,5.0,14.0,93,0.05,,,0.71,,2013-02-27 09:42:00,
2013-02-27 04:52:00,39.0,37.0,29.55,WNW,290,6.0,13.0,92,0.04,,,0.72,,2013-02-27 09:52:00,
2013-02-27 05:01:00,38.0,36.0,29.55,SW,236,5.0,13.0,92,0.02,,,0.72,,2013-02-27 10:01:00,
2013-02-27 05:12:00,38.0,36.0,29.55,SW,236,5.0,13.0,92,0.02,,,0.72,,2013-02-27 10:12:00,
2013-02-27 05:22:00,38.0,36.0,29.56,West,279,7.0,12.0,91,0.03,,,0.73,,2013-02-27 10:22:00,
2013-02-27 05:32:00,38.0,35.0,29.56,West,269,3.0,11.0,90,0.02,,,0.73,,2013-02-27 10:32:00,
2013-02-27 05:42:00,38.0,35.0,29.56,West,269,3.0,11.0,90,0.02,,,0.73,,2013-02-27 10:42:00,
2013-02-27 05:53:00,38.0,36.0,29.56,West,273,5.0,10.0,91,0.01,,,0.73,,2013-02-27 10:53:00,
2013-02-27 06:02:00,38.0,36.0,29.56,SW,230,3.0,9.0,91,0.01,,,0.73,,2013-02-27 11:02:00,
2013-02-27 06:12:00,38.0,36.0,29.56,SW,230,3.0,9.0,91,0.01,,,0.73,,2013-02-27 11:12:00,
2013-02-27 06:22:00,38.0,36.0,29.57,West,279,5.0,11.0,91,0.00,,,0.73,,2013-02-27 11:22:00,
2013-02-27 06:32:00,38.0,36.0,29.57,SW,217,4.0,13.0,91,0.00,,,0.73,,2013-02-27 11:32:00,
2013-02-27 06:42:00,38.0,36.0,29.57,SW,217,4.0,13.0,91,0.00,,,0.73,,2013-02-27 11:42:00,
2013-02-27 06:52:00,38.0,36.0,29.57,West,275,5.0,10.0,91,0.01,,,0.74,,2013-02-27 11:52:00,
2013-02-27 07:02:00,38.0,36.0,29.57,WSW,258,10.0,14.0,91,0.01,,,0.74,,2013-02-27 12:02:00,
2013-02-27 07:13:00,38.0,36.0,29.57,WSW,258,10.0,14.0,91,0.01,,,0.74,,2013-02-27 12:13:00,
2013-02-27 07:22:00,38.0,35.0,29.59,West,275,6.0,16.0,90,0.01,,,0.74,,2013-02-27 12:22:00,
2013-02-27 07:33:00,38.0,35.0,29.59,NW,310,8.0,11.0,90,0.02,,,0.75,,2013-02-27 12:33:00,
2013-02-27 07:42:00,38.0,35.0,29.59,NW,310,8.0,11.0,90,0.02,,,0.75,,2013-02-27 12:42:00,
2013-02-27 07:53:00,37.0,34.0,29.60,WNW,294,6.0,20.0,89,0.01,,,0.75,,2013-02-27 12:53:00,
2013-02-27 08:02:00,37.0,34.0,29.61,West,272,11.0,24.0,89,0.01,,,0.75,,2013-02-27 13:02:00,
2013-02-27 08:12:00,37.0,34.0,29.61,West,272,11.0,24.0,89,0.01,,,0.75,,2013-02-27 13:12:00,
2013-02-27 08:22:00,37.0,34.0,29.62,WSW,238,9.0,16.0,88,0.01,,,0.75,,2013-02-27 13:22:00,
2013-02-27 08:32:00,37.0,34.0,29.63,West,267,10.0,15.0,89,0.00,,,0.75,,2013-02-27 13:32:00,
2013-02-27 08:42:00,37.0,34.0,29.63,West,267,10.0,15.0,89,0.00,,,0.75,,2013-02-27 13:42:00,
2013-02-27 08:52:00,36.0,33.0,29.64,WNW,286,6.0,17.0,89,0.00,,,0.75,,2013-02-27 13:52:00,
2013-02-27 09:02:00,36.0,33.0,29.65,WSW,246,11.0,24.0,89,0.00,,,0.75,,2013-02-27 14:02:00,
2013-02-27 09:12:00,36.0,33.0,29.65,WSW,246,11.0,24.0,89,0.00,,,0.75,,2013-02-27 14:12:00,
2013-02-27 09:22:00,36.0,33.0,29.65,West,273,8.0,15.0,88,0.00,,,0.75,,2013-02-27 14:22:00,
2013-02-27 09:32:00,36.0,32.0,29.65,WSW,255,11.0,18.0,86,0.00,,,0.75,,2013-02-27 14:32:00,
2013-02-27 09:42:00,36.0,32.0,29.65,WSW,255,11.0,18.0,86,0.00,,,0.75,,2013-02-27 14:42:00,
2013-02-27 09:53:00,37.0,33.0,29.65,WNW,290,11.0,20.0,84,0.00,,,0.75,,2013-02-27 14:53:00,
2013-02-27 10:02:00,37.0,33.0,29.65,SW,236,8.0,15.0,85,0.00,,,0.75,,2013-02-27 15:02:00,
2013-02-27 10:12:00,37.0,33.0,29.65,SW,236,8.0,15.0,85,0.00,,,0.75,,2013-02-27 15:12:00,
2013-02-27 10:22:00,37.0,32.0,29.66,West,269,7.0,16.0,83,0.00,,,0.75,,2013-02-27 15:22:00,
2013-02-27 10:32:00,37.0,32.0,29.65,West,278,10.0,20.0,83,0.00,,,0.75,,2013-02-27 15:32:00,
2013-02-27 10:42:00,37.0,32.0,29.65,West,278,10.0,20.0,83,0.00,,,0.75,,2013-02-27 15:42:00,
2013-02-27 10:52:00,38.0,33.0,29.65,WSW,238,6.0,13.0,83,0.00,,,0.75,,2013-02-27 15:52:00,
2013-02-27 11:02:00,38.0,34.0,29.65,WSW,252,11.0,18.0,84,0.00,,,0.75,,2013-02-27 16:02:00,
2013-02-27 11:12:00,38.0,34.0,29.65,WSW,252,11.0,18.0,84,0.00,,,0.75,,2013-02-27 16:12:00,
2013-02-27 11:22:00,38.0,34.0,29.65,WSW,255,6.0,14.0,84,0.00,,,0.75,,2013-02-27 16:22:00,
2013-02-27 11:32:00,38.0,34.0,29.65,WSW,253,7.0,13.0,84,0.00,,,0.72,,2013-02-27 16:32:00,
2013-02-27 11:42:00,38.0,34.0,29.65,WSW,253,7.0,13.0,84,0.00,,,0.72,,2013-02-27 16:42:00,
2013-02-27 11:52:00,38.0,34.0,29.65,West,261,7.0,12.0,84,0.00,,,0.72,,2013-02-27 16:52:00,
2013-02-27 12:02:00,38.0,34.0,29.65,WSW,253,6.0,12.0,84,0.00,,,0.72,,2013-02-27 17:02:00,
2013-02-27 12:11:00,38.0,34.0,29.65,WSW,253,6.0,12.0,84,0.00,,,0.72,,2013-02-27 17:11:00,
2013-02-27 12:21:00,38.0,34.0,29.65,SW,227,8.0,14.0,85,0.00,,,0.72,,2013-02-27 17:21:00,
2013-02-27 12:32:00,38.0,34.0,29.65,West,265,5.0,8.0,86,0.00,,,0.67,,2013-02-27 17:32:00,
2013-02-27 12:42:00,38.0,34.0,29.65,West,265,5.0,8.0,86,0.00,,,0.67,,2013-02-27 17:42:00,
2013-02-27 12:52:00,38.0,34.0,29.64,SSW,213,4.0,18.0,86,0.00,,,0.67,,2013-02-27 17:52:00,
2013-02-27 13:02:00,38.0,34.0,29.64,WSW,257,4.0,14.0,84,0.00,,,0.67,,2013-02-27 18:02:00,
2013-02-27 13:11:00,38.0,34.0,29.64,WSW,257,4.0,14.0,84,0.00,,,0.67,,2013-02-27 18:11:00,
2013-02-27 13:22:00,38.0,33.0,29.63,West,259,7.0,16.0,83,0.00,,,0.67,,2013-02-27 18:22:00,
2013-02-27 13:32:00,39.0,34.0,29.63,West,259,9.0,16.0,81,0.00,,,0.55,,2013-02-27 18:32:00,
2013-02-27 13:42:00,39.0,34.0,29.63,West,259,9.0,16.0,81,0.00,,,0.55,,2013-02-27 18:42:00,
2013-02-27 13:52:00,39.0,34.0,29.63,WSW,255,5.0,12.0,82,0.00,,,0.55,,2013-02-27 18:52:00,
2013-02-27 14:01:00,39.0,34.0,29.62,WSW,252,7.0,12.0,81,0.00,,,0.55,,2013-02-27 19:01:00,
2013-02-27 14:12:00,39.0,34.0,29.62,WSW,252,7.0,12.0,81,0.00,,,0.55,,2013-02-27 19:12:00,
2013-02-27 14:22:00,38.0,33.0,29.63,SW,216,7.0,20.0,82,0.00,,,0.55,,2013-02-27 19:22:00,
2013-02-27 14:32:00,37.0,33.0,29.62,West,266,8.0,15.0,84,0.01,,,0.44,,2013-02-27 19:32:00,
2013-02-27 14:42:00,37.0,33.0,29.62,West,266,8.0,15.0,84,0.01,,,0.44,,2013-02-27 19:42:00,
2013-02-27 14:52:00,38.0,34.0,29.62,SW,233,8.0,14.0,85,0.01,,,0.44,,2013-02-27 19:52:00,
2013-02-27 15:02:00,38.0,33.0,29.62,WSW,254,5.0,20.0,82,0.01,,,0.44,,2013-02-27 20:02:00,
2013-02-27 15:12:00,38.0,33.0,29.62,WSW,254,5.0,20.0,82,0.01,,,0.44,,2013-02-27 20:12:00,
2013-02-27 15:22:00,38.0,33.0,29.63,West,279,6.0,19.0,81,0.01,,,0.44,,2013-02-27 20:22:00,
2013-02-27 15:32:00,38.0,33.0,29.63,WSW,250,6.0,17.0,81,0.00,,,0.43,,2013-02-27 20:32:00,
2013-02-27 15:42:00,38.0,33.0,29.63,WSW,250,6.0,17.0,81,0.00,,,0.43,,2013-02-27 20:42:00,
2013-02-27 15:52:00,38.0,33.0,29.63,SW,236,5.0,10.0,81,0.00,,,0.43,,2013-02-27 20:52:00,
2013-02-27 16:02:00,38.0,32.0,29.63,WNW,300,5.0,11.0,80,0.00,,,0.43,,2013-02-27 21:02:00,
2013-02-27 16:11:00,38.0,32.0,29.63,WNW,300,5.0,11.0,80,0.00,,,0.43,,2013-02-27 21:11:00,
2013-02-27 16:22:00,38.0,32.0,29.63,West,265,0.0,7.0,80,0.00,,,0.43,,2013-02-27 21:22:00,
2013-02-27 16:32:00,38.0,32.0,29.63,WNW,287,1.0,5.0,80,0.00,,,0.43,,2013-02-27 21:32:00,
2013-02-27 16:42:00,38.0,32.0,29.63,WNW,287,1.0,5.0,80,0.00,,,0.43,,2013-02-27 21:42:00,
2013-02-27 16:52:00,38.0,32.0,29.63,WSW,258,0.0,4.0,80,0.00,,,0.43,,2013-02-27 21:52:00,
2013-02-27 17:02:00,38.0,32.0,29.63,WSW,258,0.0,0.0,80,0.00,,,0.43,,2013-02-27 22:02:00,
2013-02-27 17:11:00,38.0,32.0,29.63,WSW,258,0.0,0.0,80,0.00,,,0.43,,2013-02-27 22:11:00,
2013-02-27 17:22:00,38.0,33.0,29.63,WSW,244,5.0,6.0,81,0.00,,,0.43,,2013-02-27 22:22:00,
2013-02-27 17:32:00,38.0,33.0,29.64,West,263,4.0,7.0,83,0.00,,,0.40,,2013-02-27 22:32:00,
2013-02-27 17:42:00,38.0,33.0,29.64,West,263,4.0,7.0,83,0.00,,,0.40,,2013-02-27 22:42:00,
2013-02-27 17:52:00,37.0,33.0,29.65,West,267,5.0,9.0,84,0.00,,,0.40,,2013-02-27 22:52:00,
2013-02-27 18:01:00,37.0,33.0,29.65,West,272,4.0,11.0,85,0.00,,,0.40,,2013-02-27 23:01:00,
2013-02-27 18:11:00,37.0,33.0,29.65,West,272,4.0,11.0,85,0.00,,,0.40,,2013-02-27 23:11:00,
2013-02-27 18:22:00,37.0,33.0,29.65,SW,236,5.0,8.0,85,0.00,,,0.40,,2013-02-27 23:22:00,
2013-02-27 18:32:00,37.0,33.0,29.66,SW,226,3.0,7.0,85,0.00,,,0.29,,2013-02-27 23:32:00,
2013-02-27 18:42:00,37.0,33.0,29.66,SW,226,3.0,7.0,85,0.00,,,0.29,,2013-02-27 23:42:00,
2013-02-27 18:53:00,36.0,32.0,29.67,West,268,1.0,6.0,86,0.01,,,0.30,,2013-02-27 23:53:00,
2013-02-27 19:02:00,36.0,33.0,29.67,WSW,251,0.0,4.0,87,0.01,,,0.30,,2013-02-28 00:02:00,
2013-02-27 19:12:00,36.0,33.0,29.67,WSW,251,0.0,4.0,87,0.01,,,0.30,,2013-02-28 00:12:00,
2013-02-27 19:22:00,36.0,33.0,29.67,WSW,252,2.0,7.0,88,0.01,,,0.30,,2013-02-28 00:22:00,
2013-02-27 19:32:00,35.0,32.0,29.67,West,263,3.0,7.0,89,0.03,,,0.27,,2013-02-28 00:32:00,
2013-02-27 19:42:00,35.0,32.0,29.67,West,263,3.0,7.0,89,0.03,,,0.27,,2013-02-28 00:42:00,
2013-02-27 19:52:00,35.0,32.0,29.67,WSW,247,2.0,7.0,90,0.02,,,0.27,,2013-02-28 00:52:00,
2013-02-27 20:01:00,35.0,32.0,29.67,West,277,3.0,12.0,90,0.02,,,0.27,,2013-02-28 01:01:00,
2013-02-27 20:11:00,35.0,32.0,29.67,West,277,3.0,12.0,90,0.02,,,0.27,,2013-02-28 01:11:00,
2013-02-27 20:22:00,35.0,32.0,29.66,West,271,6.0,11.0,90,0.03,,,0.28,,2013-02-28 01:22:00,
2013-02-27 20:32:00,35.0,32.0,29.66,WSW,249,3.0,8.0,90,0.01,,,0.28,,2013-02-28 01:32:00,
2013-02-27 20:42:00,35.0,32.0,29.66,WSW,249,3.0,8.0,90,0.01,,,0.28,,2013-02-28 01:42:00,
2013-02-27 20:52:00,35.0,33.0,29.66,SW,234,3.0,9.0,91,0.01,,,0.28,,2013-02-28 01:52:00,
2013-02-27 21:01:00,35.0,33.0,29.66,West,261,5.0,12.0,91,0.02,,,0.29,,2013-02-28 02:01:00,
2013-02-27 21:11:00,35.0,33.0,29.66,West,261,5.0,12.0,91,0.02,,,0.29,,2013-02-28 02:11:00,
2013-02-27 21:22:00,34.0,32.0,29.67,SSW,205,8.0,18.0,91,0.01,,,0.29,,2013-02-28 02:22:00,
2013-02-27 21:32:00,33.0,31.0,29.67,WNW,287,5.0,11.0,91,0.01,,,0.28,,2013-02-28 02:32:00,
2013-02-27 21:42:00,33.0,31.0,29.67,WNW,287,5.0,11.0,91,0.01,,,0.28,,2013-02-28 02:42:00,
2013-02-27 21:52:00,33.0,31.0,29.67,WNW,287,5.0,11.0,91,0.01,,,0.28,,2013-02-28 02:52:00,
2013-02-27 22:02:00,33.0,31.0,29.66,WSW,256,6.0,12.0,92,0.01,,,0.29,,2013-02-28 03:02:00,
2013-02-27 22:11:00,33.0,31.0,29.66,WSW,256,6.0,12.0,92,0.01,,,0.29,,2013-02-28 03:11:00,
2013-02-27 22:21:00,33.0,31.0,29.67,WNW,282,4.0,15.0,92,0.01,,,0.29,,2013-02-28 03:21:00,
2013-02-27 22:32:00,33.0,31.0,29.66,West,265,9.0,16.0,92,0.01,,,0.29,,2013-02-28 03:32:00,
2013-02-27 22:42:00,33.0,31.0,29.66,West,265,9.0,16.0,92,0.01,,,0.29,,2013-02-28 03:42:00,
2013-02-27 22:52:00,33.0,31.0,29.66,SW,221,8.0,13.0,92,0.01,,,0.29,,2013-02-28 03:52:00,
2013-02-27 23:02:00,33.0,31.0,29.66,West,260,6.0,13.0,92,0.00,,,0.29,,2013-02-28 04:02:00,
2013-02-27 23:11:00,33.0,31.0,29.66,West,260,6.0,13.0,92,0.00,,,0.29,,2013-02-28 04:11:00,
2013-02-27 23:22:00,32.0,30.0,29.66,WNW,296,9.0,20.0,92,0.00,,,0.29,,2013-02-28 04:22:00,
2013-02-27 23:32:00,31.0,28.0,29.66,WSW,250,11.0,20.0,90,0.00,,,0.29,,2013-02-28 04:32:00,
2013-02-27 23:42:00,31.0,28.0,29.66,WSW,250,11.0,20.0,90,0.00,,,0.29,,2013-02-28 04:42:00,
2013-02-27 23:52:00,31.0,28.0,29.66,West,271,8.0,15.0,90,0.00,,,0.29,,2013-02-28 04:52:00,